TimeCDT,TemperatureF,Dew PointF,Humidity,Sea Level PressureIn,VisibilityMPH,Wind Direction,Wind SpeedMPH,Gust SpeedMPH,PrecipitationIn,Events,Conditions,WindDirDegrees,DateUTC
12:15 AM,50.9,44.8,80,30.30,10.0,Calm,Calm,-,N/A,,Clear,0,2013-03-29 05:15:00
12:35 AM,49.8,44.4,82,30.29,10.0,Calm,Calm,-,N/A,,Clear,0,2013-03-29 05:35:00
12:55 AM,49.1,45.0,86,30.29,10.0,Calm,Calm,-,N/A,,Clear,0,2013-03-29 05:55:00
1:15 AM,49.1,45.1,86,30.29,10.0,Calm,Calm,-,N/A,,Clear,0,2013-03-29 06:15:00
1:55 AM,47.8,45.0,90,30.28,10.0,Calm,Calm,-,N/A,,Clear,0,2013-03-29 06:55:00
2:15 AM,47.5,45.5,93,30.28,10.0,Calm,Calm,-,N/A,,Clear,0,2013-03-29 07:15:00
2:35 AM,46.4,44.4,93,30.28,10.0,Calm,Calm,-,N/A,,Clear,0,2013-03-29 07:35:00
2:55 AM,45.5,44.2,95,30.27,7.0,Calm,Calm,-,N/A,,Clear,0,2013-03-29 07:55:00
3:35 AM,45.9,44.6,95,30.25,7.0,Calm,Calm,-,N/A,,Clear,0,2013-03-29 08:35:00
3:55 AM,44.2,43.7,98,30.26,3.0,Calm,Calm,-,N/A,,Clear,0,2013-03-29 08:55:00
4:15 AM,43.9,43.5,99,30.26,4.0,Calm,Calm,-,N/A,,Clear,0,2013-03-29 09:15:00
4:35 AM,44.1,43.7,99,30.26,4.0,Calm,Calm,-,N/A,,Clear,0,2013-03-29 09:35:00
4:55 AM,44.1,43.7,99,30.26,4.0,Calm,Calm,-,N/A,,Clear,0,2013-03-29 09:55:00
5:15 AM,44.2,43.7,98,30.27,7.0,Calm,Calm,-,N/A,,Clear,0,2013-03-29 10:15:00
5:35 AM,44.1,43.2,97,30.27,7.0,Calm,Calm,-,N/A,,Clear,0,2013-03-29 10:35:00
5:55 AM,43.3,43.0,99,30.28,4.0,Calm,Calm,-,N/A,,Clear,0,2013-03-29 10:55:00
6:15 AM,43.3,43.0,99,30.28,3.0,Calm,Calm,-,N/A,,Clear,0,2013-03-29 11:15:00
6:35 AM,43.7,43.5,99,30.29,4.0,Calm,Calm,-,N/A,,Clear,0,2013-03-29 11:35:00
6:55 AM,44.2,43.7,98,30.29,5.0,Calm,Calm,-,N/A,,Clear,0,2013-03-29 11:55:00
7:15 AM,45.0,44.4,98,30.29,5.0,Calm,Calm,-,N/A,,Clear,0,2013-03-29 12:15:00
7:35 AM,44.6,43.7,97,30.30,5.0,Calm,Calm,-,N/A,,Clear,0,2013-03-29 12:35:00
7:55 AM,46.6,45.9,97,30.31,4.0,Calm,Calm,-,N/A,,Clear,0,2013-03-29 12:55:00
8:15 AM,49.5,48.2,95,30.31,5.0,Calm,Calm,-,N/A,,Clear,0,2013-03-29 13:15:00
8:35 AM,52.9,50.4,91,30.33,7.0,Calm,Calm,-,N/A,,Clear,0,2013-03-29 13:35:00
8:55 AM,55.4,52.0,88,30.33,7.0,Calm,Calm,-,N/A,,Clear,0,2013-03-29 13:55:00
9:15 AM,57.9,53.2,84,30.32,10.0,SE,4.6,-,N/A,,Clear,130,2013-03-29 14:15:00
9:35 AM,59.5,53.1,79,30.32,10.0,ESE,3.5,-,N/A,,Clear,120,2013-03-29 14:35:00
9:55 AM,61.9,53.6,74,30.32,10.0,SSE,4.6,-,N/A,,Clear,150,2013-03-29 14:55:00
10:15 AM,63.7,53.6,70,30.31,10.0,SSE,3.5,-,N/A,,Clear,160,2013-03-29 15:15:00
10:35 AM,65.3,54.1,67,30.30,10.0,SSE,5.8,-,N/A,,Clear,160,2013-03-29 15:35:00
10:55 AM,66.2,53.6,64,30.30,10.0,SSE,9.2,-,N/A,,Clear,160,2013-03-29 15:55:00
11:15 AM,67.1,53.2,61,30.30,10.0,SSE,9.2,-,N/A,,Clear,150,2013-03-29 16:15:00
11:55 AM,68.9,53.1,57,30.29,10.0,South,9.2,-,N/A,,Clear,170,2013-03-29 16:55:00
12:15 PM,70.0,53.1,55,30.28,10.0,SSE,8.1,-,N/A,,Clear,160,2013-03-29 17:15:00
12:35 PM,70.3,52.5,53,30.27,10.0,South,6.9,-,N/A,,Clear,190,2013-03-29 17:35:00
12:55 PM,71.8,53.1,52,30.26,10.0,South,10.4,-,N/A,,Clear,170,2013-03-29 17:55:00
1:15 PM,72.3,52.7,50,30.24,10.0,South,8.1,-,N/A,,Clear,180,2013-03-29 18:15:00
1:35 PM,72.7,50.5,46,30.24,10.0,South,9.2,17.3,N/A,,Clear,190,2013-03-29 18:35:00
1:55 PM,72.9,52.0,48,30.22,10.0,SSW,8.1,-,N/A,,Clear,210,2013-03-29 18:55:00
2:15 PM,73.4,51.8,47,30.21,10.0,South,6.9,-,N/A,,Clear,190,2013-03-29 19:15:00
2:35 PM,74.1,50.9,44,30.21,10.0,SSW,6.9,-,N/A,,Scattered Clouds,200,2013-03-29 19:35:00
2:55 PM,74.3,51.1,44,30.20,10.0,South,9.2,16.1,N/A,,Scattered Clouds,180,2013-03-29 19:55:00
3:15 PM,74.5,49.3,41,30.19,10.0,SSW,6.9,17.3,N/A,,Scattered Clouds,210,2013-03-29 20:15:00
3:35 PM,74.8,49.3,40,30.19,10.0,SSW,9.2,-,N/A,,Clear,210,2013-03-29 20:35:00
3:55 PM,75.0,49.8,41,30.18,10.0,SSW,11.5,18.4,N/A,,Scattered Clouds,210,2013-03-29 20:55:00
4:15 PM,75.2,48.0,38,30.18,10.0,SSW,11.5,18.4,N/A,,Scattered Clouds,200,2013-03-29 21:15:00
4:35 PM,74.7,49.8,42,30.18,10.0,South,10.4,16.1,N/A,,Clear,190,2013-03-29 21:35:00
4:55 PM,73.8,51.3,45,30.18,10.0,South,6.9,-,N/A,,Clear,180,2013-03-29 21:55:00
5:15 PM,72.9,49.8,44,30.18,10.0,SW,6.9,-,N/A,,Scattered Clouds,220,2013-03-29 22:15:00
5:35 PM,73.0,50.2,44,30.19,10.0,SW,5.8,-,N/A,,Scattered Clouds,220,2013-03-29 22:35:00
5:55 PM,72.1,49.3,44,30.19,10.0,SSW,8.1,-,N/A,,Clear,210,2013-03-29 22:55:00
6:15 PM,71.6,50.0,46,30.19,10.0,SW,6.9,-,N/A,,Clear,220,2013-03-29 23:15:00
6:35 PM,70.5,50.2,48,30.19,10.0,SW,5.8,-,N/A,,Clear,230,2013-03-29 23:35:00
6:55 PM,69.1,50.2,51,30.19,10.0,SW,3.5,-,N/A,,Clear,230,2013-03-29 23:55:00
7:15 PM,67.5,50.0,53,30.20,10.0,SW,3.5,-,N/A,,Clear,220,2013-03-30 00:15:00
7:35 PM,66.2,50.0,56,30.20,10.0,SW,3.5,-,N/A,,Clear,220,2013-03-30 00:35:00
7:55 PM,65.3,50.0,58,30.20,10.0,SW,4.6,-,N/A,,Clear,220,2013-03-30 00:55:00
8:15 PM,64.6,50.4,60,30.21,10.0,SSW,4.6,-,N/A,,Clear,210,2013-03-30 01:15:00
8:35 PM,63.5,50.4,62,30.21,10.0,SSW,4.6,-,N/A,,Clear,200,2013-03-30 01:35:00
8:55 PM,62.1,51.1,67,30.21,10.0,SSW,4.6,-,N/A,,Clear,200,2013-03-30 01:55:00
9:15 PM,60.6,50.9,70,30.21,10.0,Calm,Calm,-,N/A,,Clear,0,2013-03-30 02:15:00
9:35 PM,59.5,51.8,76,30.21,10.0,Calm,Calm,-,N/A,,Clear,0,2013-03-30 02:35:00
9:55 PM,58.3,52.0,80,30.21,10.0,Calm,Calm,-,N/A,,Clear,0,2013-03-30 02:55:00
10:15 PM,57.4,51.6,81,30.21,10.0,Calm,Calm,-,N/A,,Clear,0,2013-03-30 03:15:00
10:35 PM,57.2,51.6,82,30.21,10.0,Calm,Calm,-,N/A,,Clear,0,2013-03-30 03:35:00
10:55 PM,56.3,51.3,83,30.21,10.0,Calm,Calm,-,N/A,,Clear,0,2013-03-30 03:55:00
11:15 PM,55.4,51.1,85,30.21,10.0,Calm,Calm,-,N/A,,Clear,0,2013-03-30 04:15:00
11:35 PM,55.0,51.4,88,30.21,10.0,Calm,Calm,-,N/A,,Clear,0,2013-03-30 04:35:00
11:55 PM,54.7,51.6,89,30.21,10.0,Calm,Calm,-,N/A,,Clear,0,2013-03-30 04:55:00